Prescott, AZ

10:56 PM MST on December 05, 2019 (GMT -0700)
Love

Weather History for KPRC - October, 2019

Change the Weather History Date:

Monday, October 14, 2019

  Actual Average Record
Temperature  
Mean Temperature 58 °F 57 °F  
Max Temperature 71 °F 72 °F 87 °F (1991)
Min Temperature 44 °F 42 °F 25 °F (1966)
Degree Days  
Heating Degree Days 8    
Month to date heating degree days  
Since 1 July heating degree days  
Cooling Degree Days 0    
Month to date cooling degree days  
Year to date cooling degree days  
Growing Degree Days 8 (Base 50)    
Moisture  
Dew Point 35 °F    
Average Humidity 46    
Maximum Humidity 71    
Minimum Humidity 24    
Precipitation  
Precipitation 0.00 in 0.03 in 0.41 in (1960)
Month to date precipitation 0.46  
Year to date precipitation 11.63  
Sea Level Pressure  
Sea Level Pressure 29.91 in    
Wind  
Wind Speed 6 mph ()    
Max Wind Speed 14 mph    
Max Gust Speed 23 mph    
Visibility 10.0 miles    
Events      
T = Trace of Precipitation, MM = Missing Value Source: Averaged Metar Reports

Daily Weather History Graph

Daily Weather History Graph

Search for Another Location

Airport or City:

Astronomy

Oct. 14, 2019 Rise Set
Actual Time 6:34 AM MST 5:56 PM MST
Civil Twilight 6:09 AM MST 6:21 PM MST
Nautical Twilight 5:39 AM MST 6:51 PM MST
Astronomical Twilight 5:10 AM MST 7:20 PM MST
Moon 6:49 PM MST (10/14) 7:10 AM MST (10/14)
Length of Visible Light 12h 12m
Length of Day
11h 22m
Full, 99% of the Moon is Illuminated
Oct 14
Full
Oct 21
Last Quarter
Oct 27
New
Nov 4
First Quarter
Nov 12
Full

Hourly Weather History & Observations

Time (MST) Temp. Windchill Dew Point Humidity Pressure Visibility Wind Dir Wind Speed Gust Speed Precip Events Conditions
12:53 AM 46.9 °F - 28.0 °F 48% 29.87 in 10.0 mi SW 4.6 mph - N/A   Clear
1:53 AM 46.0 °F 42.5 °F 28.0 °F 50% 29.87 in 10.0 mi South 6.9 mph - N/A   Clear
2:53 AM 46.0 °F 41.9 °F 28.0 °F 50% 29.86 in 10.0 mi SSW 8.1 mph - N/A   Clear
3:53 AM 46.9 °F - 28.9 °F 50% 29.86 in 10.0 mi SW 6.9 mph - N/A   Clear
4:53 AM 44.1 °F 39.0 °F 30.9 °F 60% 29.89 in 10.0 mi SSW 9.2 mph - N/A   Clear
5:53 AM 44.1 °F 40.1 °F 33.1 °F 65% 29.91 in 10.0 mi SSW 6.9 mph - N/A   Clear
6:53 AM 44.1 °F 40.1 °F 34.0 °F 68% 29.92 in 10.0 mi SSW 6.9 mph - N/A   Clear
7:53 AM 53.1 °F - 36.0 °F 52% 29.93 in 10.0 mi South 4.6 mph - N/A   Clear
8:53 AM 61.0 °F - 36.0 °F 39% 29.93 in 10.0 mi South 4.6 mph - N/A   Clear
9:53 AM 64.9 °F - 36.0 °F 34% 29.92 in 10.0 mi Variable 3.5 mph - N/A   Partly Cloudy
10:53 AM 68.0 °F - 39.0 °F 35% 29.91 in 10.0 mi SW 10.4 mph - N/A   Partly Cloudy
11:53 AM 69.1 °F - 37.9 °F 32% 29.91 in 10.0 mi SSW 13.8 mph 19.6 mph N/A   Scattered Clouds
12:53 PM 70.0 °F - 36.0 °F 29% 29.89 in 10.0 mi SSE 8.1 mph 18.4 mph N/A   Scattered Clouds
1:53 PM 70.0 °F - 35.1 °F 28% 29.88 in 10.0 mi South 13.8 mph 23.0 mph N/A   Scattered Clouds
2:53 PM 71.1 °F - 33.1 °F 25% 29.86 in 10.0 mi SW 13.8 mph - N/A   Clear
3:53 PM 69.1 °F - 30.9 °F 24% 29.87 in 10.0 mi SW 10.4 mph - N/A   Clear
4:53 PM 69.1 °F - 36.0 °F 30% 29.88 in 10.0 mi WSW 8.1 mph - N/A   Clear
5:53 PM 64.9 °F - 36.0 °F 34% 29.91 in 10.0 mi SSW 5.8 mph - N/A   Clear
6:53 PM 60.1 °F - 37.9 °F 44% 29.94 in 10.0 mi SSW 4.6 mph - N/A   Clear
7:53 PM 57.9 °F - 37.9 °F 47% 29.94 in 10.0 mi South 6.9 mph - N/A   Clear
8:53 PM 54.0 °F - 39.0 °F 57% 29.95 in 10.0 mi SW 4.6 mph - N/A   Clear
9:53 PM 51.1 °F - 37.9 °F 61% 29.96 in 10.0 mi Calm Calm - N/A   Clear
10:53 PM 50.0 °F - 39.0 °F 66% 29.96 in 10.0 mi South 3.5 mph - N/A   Clear
11:53 PM 48.0 °F - 39.0 °F 71% 29.96 in 10.0 mi SSW 3.5 mph - N/A   Clear